Time,TemperatureF,DewpointF,PressureIn,WindDirection,WindDirectionDegrees,WindSpeedMPH,WindSpeedGustMPH,Humidity,HourlyPrecipIn,Conditions,Clouds,dailyrainin,SolarRadiationWatts/m^2,SoftwareType,DateUTC
2013-02-26 00:00:00,29.0,17.0,29.90,WSW,258,13.0,-999.0,59,-99.99,,,-99.99,0.060000,,2013-02-26 07:00:00,
2013-02-26 00:52:00,29.0,17.0,29.90,WSW,258,13.0,-999.0,59,-99.99,,,-99.99,0.060000,,2013-02-26 07:52:00,
2013-02-26 01:00:00,27.0,16.0,29.91,West,265,12.0,-999.0,62,-99.99,,,-99.99,0.050000,,2013-02-26 08:00:00,
2013-02-26 01:52:00,27.0,16.0,29.91,West,265,12.0,-999.0,62,-99.99,,,-99.99,0.050000,,2013-02-26 08:52:00,
2013-02-26 02:00:00,26.0,16.0,29.92,West,270,12.0,-999.0,64,-99.99,,,-99.99,0.020000,,2013-02-26 09:00:00,
2013-02-26 02:52:00,26.0,16.0,29.92,West,270,12.0,-999.0,64,-99.99,,,-99.99,0.020000,,2013-02-26 09:52:00,
2013-02-26 03:00:00,24.0,15.0,29.93,West,268,11.0,-999.0,69,-99.99,,,-99.99,0.010000,,2013-02-26 10:00:00,
2013-02-26 03:52:00,24.0,15.0,29.93,West,268,11.0,-999.0,69,-99.99,,,-99.99,0.010000,,2013-02-26 10:52:00,
2013-02-26 04:00:00,22.0,14.0,29.95,West,272,8.0,-999.0,71,-99.99,,,-99.99,0.000000,,2013-02-26 11:00:00,
2013-02-26 04:52:00,22.0,14.0,29.95,West,272,8.0,-999.0,71,-99.99,,,-99.99,0.000000,,2013-02-26 11:52:00,
2013-02-26 05:00:00,20.0,13.0,29.98,WSW,248,5.0,-999.0,75,-99.99,,,-99.99,0.000000,,2013-02-26 12:00:00,
2013-02-26 05:53:00,20.0,13.0,29.98,WSW,248,5.0,-999.0,75,-99.99,,,-99.99,0.000000,,2013-02-26 12:53:00,
2013-02-26 06:00:00,23.0,16.0,30.00,WSW,253,6.0,-999.0,76,-99.99,,,-99.99,0.000000,,2013-02-26 13:00:00,
2013-02-26 06:52:00,23.0,16.0,30.00,WSW,253,6.0,-999.0,76,-99.99,,,-99.99,0.000000,,2013-02-26 13:52:00,
2013-02-26 07:00:00,23.0,18.0,30.02,NW,310,3.0,-999.0,82,-99.99,,,-99.99,0.150000,,2013-02-26 14:00:00,
2013-02-26 07:52:00,23.0,18.0,30.02,NW,310,3.0,-999.0,82,-99.99,,,-99.99,0.150000,,2013-02-26 14:52:00,
2013-02-26 08:00:00,27.0,18.0,30.04,West,279,6.0,-999.0,70,-99.99,,,-99.99,31.510000,,2013-02-26 15:00:00,
2013-02-26 08:52:00,27.0,18.0,30.04,West,279,6.0,-999.0,70,-99.99,,,-99.99,31.510000,,2013-02-26 15:52:00,
2013-02-26 09:00:00,28.0,21.0,30.07,NW,305,11.0,-999.0,74,-99.99,,,-99.99,160.300003,,2013-02-26 16:00:00,
2013-02-26 09:52:00,28.0,21.0,30.07,NW,305,11.0,-999.0,74,-99.99,,,-99.99,160.300003,,2013-02-26 16:52:00,
2013-02-26 10:00:00,29.0,23.0,30.09,NW,308,16.0,-999.0,77,-99.99,,,-99.99,326.500000,,2013-02-26 17:00:00,
2013-02-26 10:52:00,29.0,23.0,30.09,NW,308,16.0,-999.0,77,-99.99,,,-99.99,326.500000,,2013-02-26 17:52:00,
2013-02-26 11:00:00,31.0,24.0,30.10,WNW,298,20.0,-999.0,76,-99.99,,,-99.99,444.200012,,2013-02-26 18:00:00,
2013-02-26 11:52:00,31.0,24.0,30.10,WNW,298,20.0,-999.0,76,-99.99,,,-99.99,444.200012,,2013-02-26 18:52:00,
2013-02-26 12:00:00,30.0,24.0,30.10,NW,304,16.0,-999.0,76,-99.99,,,-99.99,506.799988,,2013-02-26 19:00:00,
2013-02-26 12:52:00,30.0,24.0,30.10,NW,304,16.0,-999.0,76,-99.99,,,-99.99,506.799988,,2013-02-26 19:52:00,
2013-02-26 14:00:00,30.0,24.0,30.12,NW,312,19.0,-999.0,76,-99.99,,,-99.99,543.200012,,2013-02-26 21:00:00,
2013-02-26 14:51:00,30.0,24.0,30.12,NW,312,19.0,-999.0,76,-99.99,,,-99.99,543.200012,,2013-02-26 21:51:00,
2013-02-26 15:00:00,32.0,24.0,30.13,NW,317,20.0,-999.0,72,-99.99,,,-99.99,457.600006,,2013-02-26 22:00:00,
2013-02-26 15:52:00,32.0,24.0,30.13,NW,317,20.0,-999.0,72,-99.99,,,-99.99,457.600006,,2013-02-26 22:52:00,
2013-02-26 16:00:00,32.0,24.0,30.15,NW,315,16.0,-999.0,71,-99.99,,,-99.99,368.899994,,2013-02-26 23:00:00,
2013-02-26 16:52:00,32.0,24.0,30.15,NW,315,16.0,-999.0,71,-99.99,,,-99.99,368.899994,,2013-02-26 23:52:00,
2013-02-26 17:00:00,31.0,24.0,30.15,NW,324,12.0,-999.0,74,-99.99,,,-99.99,223.800003,,2013-02-27 00:00:00,
2013-02-26 17:52:00,31.0,24.0,30.15,NW,324,12.0,-999.0,74,-99.99,,,-99.99,223.800003,,2013-02-27 00:52:00,
2013-02-26 18:00:00,27.0,23.0,30.16,North,359,8.0,-999.0,86,-99.99,,,-99.99,33.889999,,2013-02-27 01:00:00,
2013-02-26 18:52:00,27.0,23.0,30.16,North,359,8.0,-999.0,86,-99.99,,,-99.99,33.889999,,2013-02-27 01:52:00,
2013-02-26 19:00:00,25.0,22.0,30.17,NW,319,3.0,-999.0,87,-99.99,,,-99.99,0.720000,,2013-02-27 02:00:00,
2013-02-26 19:52:00,25.0,22.0,30.17,NW,319,3.0,-999.0,87,-99.99,,,-99.99,0.720000,,2013-02-27 02:52:00,
2013-02-26 20:00:00,22.0,20.0,30.17,NW,316,3.0,-999.0,90,-99.99,,,-99.99,0.000000,,2013-02-27 03:00:00,
2013-02-26 20:52:00,22.0,20.0,30.17,NW,316,3.0,-999.0,90,-99.99,,,-99.99,0.000000,,2013-02-27 03:52:00,
2013-02-26 21:00:00,21.0,19.0,30.18,SW,222,4.0,-999.0,93,-99.99,,,-99.99,0.000000,,2013-02-27 04:00:00,
2013-02-26 21:52:00,21.0,19.0,30.18,SW,222,4.0,-999.0,93,-99.99,,,-99.99,0.000000,,2013-02-27 04:52:00,
2013-02-26 22:00:00,19.0,16.0,30.18,SW,217,5.0,-999.0,90,-99.99,,,-99.99,0.000000,,2013-02-27 05:00:00,
2013-02-26 22:52:00,19.0,16.0,30.18,SW,217,5.0,-999.0,90,-99.99,,,-99.99,0.000000,,2013-02-27 05:52:00,
2013-02-26 23:00:00,18.0,14.0,30.18,SW,222,4.0,-999.0,83,-99.99,,,-99.99,0.000000,,2013-02-27 06:00:00,
2013-02-26 23:52:00,18.0,14.0,30.18,SW,222,4.0,-999.0,83,-99.99,,,-99.99,0.000000,,2013-02-27 06:52:00,